This is the latest recevied weather packets stored in our database for station/object N8VDS-10. If no packets are shown the sender has not sent any weather packets the latest 10 day(s).
| Time | Temp. | Humidity | Pressure | Rain* | Wind** | Luminosity | Snow |
|---|---|---|---|---|---|---|---|
| 1777931122 | 24.44° C | 33% | 1002.7 hPa | 0 mm | - | 355 W/m² | - |
| 1777930818 | 23.89° C | 33% | 1002.9 hPa | 0 mm | - | 353 W/m² | - |
| 1777930515 | 24.44° C | 31% | 1002.9 hPa | 0 mm | - | 381 W/m² | - |
| 1777930212 | 24.44° C | 32% | 1002.7 hPa | 0 mm | - | 362 W/m² | - |
| 1777929908 | 23.89° C | 32% | 1002.8 hPa | 0 mm | - | 417 W/m² | - |
| 1777929605 | 23.89° C | 32% | 1002.8 hPa | 0 mm | - | 354 W/m² | - |
| 1777929302 | 23.89° C | 32% | 1002.9 hPa | 0 mm | - | 337 W/m² | - |
| 1777928999 | 23.89° C | 32% | 1002.9 hPa | 0 mm | - | 304 W/m² | - |
| 1777928696 | 24.44° C | 31% | 1002.8 hPa | 0 mm | - | 341 W/m² | - |
| 1777928393 | 23.89° C | 31% | 1003.1 hPa | 0 mm | - | 401 W/m² | - |
| 1777928090 | 23.89° C | 31% | 1003 hPa | 0 mm | - | 358 W/m² | - |
| 1777927788 | 23.89° C | 30% | 1003 hPa | 0 mm | - | 400 W/m² | - |
| 1777927486 | 23.89° C | 30% | 1002.8 hPa | 0 mm | - | 372 W/m² | - |
| 1777927185 | 24.44° C | 30% | 1002.8 hPa | 0 mm | - | 401 W/m² | - |
| 1777926883 | 24.44° C | 28% | 1002.9 hPa | 0 mm | - | 444 W/m² | - |
| 1777926578 | 24.44° C | 29% | 1002.7 hPa | 0 mm | - | 521 W/m² | - |
| 1777926275 | 24.44° C | 28% | 1003 hPa | 0 mm | - | 520 W/m² | - |
| 1777925972 | 25° C | 28% | 1003.1 hPa | 0 mm | - | 538 W/m² | - |
| 1777925669 | 24.44° C | 28% | 1003.2 hPa | 0 mm | - | 526 W/m² | - |
| 1777925367 | 25° C | 28% | 1003.4 hPa | 0 mm | - | 555 W/m² | - |
| 1777925064 | 24.44° C | 27% | 1003.3 hPa | 0 mm | - | 516 W/m² | - |
| 1777924760 | 25° C | 27% | 1003.1 hPa | 0 mm | - | 580 W/m² | - |
| 1777924456 | 24.44° C | 27% | 1003.1 hPa | 0 mm | - | 592 W/m² | - |
| 1777924153 | 23.89° C | 27% | 1003.3 hPa | 0 mm | - | 621 W/m² | - |
| 1777923849 | 24.44° C | 27% | 1003.5 hPa | 0 mm | - | 507 W/m² | - |
* Rain latest hour (hover to see other rain measurements)
** Current wind speed in m/s (hover to see current wind gust speed)